Stratford, CT

2:01 AM EST on February 07, 2016 (GMT -0500)
Sikorsky Memorial

Weather History for KBDR - April, 2014

Change the Weather History Date:

Friday, April 18, 2014

  Actual Average Record
Temperature  
Mean Temperature 40 °F 50 °F  
Max Temperature 46 °F 59 °F 85 °F (2002)
Min Temperature 33 °F 42 °F 32 °F (1962)
Degree Days  
Heating Degree Days 25 15  
Month to date heating degree days 324 319  
Since 1 July heating degree days 5306 5003  
Cooling Degree Days 0 0  
Month to date cooling degree days 0 0  
Year to date cooling degree days 0 0  
Moisture  
Dew Point 29 °F    
Average Humidity 65    
Maximum Humidity 76    
Minimum Humidity 53    
Precipitation  
Precipitation 0.00 in 0.14 in 1.01 in (1969)
Month to date precipitation 2.25 2.56  
Year to date precipitation 14.45 12.50  
Snow  
Snow 0.00 in 0.00 in T in (2001)
Month to date snowfall 0.1 0.8  
Since 1 July snowfall 57.4 27.5  
Snow Depth 0.00 in    
Sea Level Pressure  
Sea Level Pressure 30.47 in    
Wind  
Wind Speed 8 mph (East)    
Max Wind Speed 14 mph    
Max Gust Speed 16 mph    
Visibility 10 miles    
Events      
T = Trace of Precipitation, MM = Missing Value Source: NWS Daily Summary

Daily Weather History Graph

Daily Weather History Graph

Search for Another Location

Airport or City:

Trip Planner

Search our weather history database for the weather conditions in past years. The results will help you decide how hot, cold, wet, or windy it might be!

Date:

Astronomy

Apr. 18, 2014 Rise Set
Actual Time 6:08 AM EDT 7:35 PM EDT
Civil Twilight 5:39 AM EDT 8:04 PM EDT
Nautical Twilight 5:05 AM EDT 8:39 PM EDT
Astronomical Twilight 4:28 AM EDT 9:16 PM EDT
Moon 11:19 PM EDT (4/18) 8:27 AM EDT (4/18)
Length of Visible Light 14h 24m
Length of Day
13h 27m
Waning Gibbous, 87% of the Moon is Illuminated
Apr 18
Waning Gibbous
Apr 22
Last Quarter
Apr 29
New
May 6
First Quarter
May 14
Full

Hourly Weather History & Observations

Time (EDT) Temp. Windchill Dew Point Humidity Pressure Visibility Wind Dir Wind Speed Gust Speed Precip Events Conditions
12:52 AM 37.9 °F 30.0 °F 26.1 °F 62% 30.61 in 10.0 mi ENE 12.7 mph - N/A   Clear
1:52 AM 37.0 °F 29.3 °F 25.0 °F 62% 30.61 in 10.0 mi ENE 11.5 mph - N/A   Clear
2:52 AM 35.1 °F 27.4 °F 25.0 °F 67% 30.61 in 10.0 mi NNE 10.4 mph - N/A   Clear
3:52 AM 34.0 °F 26.0 °F 25.0 °F 70% 30.58 in 10.0 mi NNE 10.4 mph - N/A   Clear
4:27 AM 34.0 °F 25.0 °F 25.0 °F 70% 30.57 in 10.0 mi NNE 12.7 mph - N/A   Mostly Cloudy
4:52 AM 33.1 °F 24.9 °F 25.0 °F 72% 30.54 in 10.0 mi NNE 10.4 mph - N/A   Mostly Cloudy
5:10 AM 33.1 °F 24.4 °F 25.0 °F 72% 30.51 in 10.0 mi NE 11.5 mph - N/A   Scattered Clouds
5:44 AM 34.0 °F 25.5 °F 26.1 °F 73% 30.52 in 10.0 mi NE 11.5 mph - N/A   Mostly Cloudy
5:52 AM 34.0 °F 26.6 °F 26.1 °F 73% 30.53 in 10.0 mi NE 9.2 mph - N/A   Overcast
6:52 AM 34.0 °F 26.6 °F 27.0 °F 75% 30.53 in 10.0 mi NNE 9.2 mph - N/A   Overcast
7:52 AM 36.0 °F 29.6 °F 27.0 °F 70% 30.56 in 10.0 mi NNE 8.1 mph - N/A   Overcast
8:52 AM 37.9 °F 32.7 °F 28.0 °F 68% 30.57 in 10.0 mi NE 6.9 mph - N/A   Overcast
9:52 AM 39.9 °F 34.5 °F 30.0 °F 68% 30.56 in 10.0 mi ENE 8.1 mph - N/A   Overcast
10:52 AM 41.0 °F 34.3 °F 30.9 °F 67% 30.51 in 10.0 mi East 11.5 mph - N/A   Scattered Clouds
11:52 AM 42.1 °F 35.7 °F 32.0 °F 67% 30.49 in 10.0 mi ESE 11.5 mph - N/A   Clear
12:52 PM 42.1 °F 36.1 °F 30.9 °F 65% 30.49 in 10.0 mi ESE 10.4 mph - N/A   Clear
1:52 PM 43.0 °F 38.2 °F 32.0 °F 65% 30.46 in 10.0 mi East 8.1 mph - N/A   Clear
2:52 PM 44.1 °F 39.5 °F 32.0 °F 63% 30.44 in 10.0 mi ESE 8.1 mph - N/A   Clear
3:52 PM 44.1 °F 41.5 °F 30.0 °F 58% 30.40 in 10.0 mi East 4.6 mph - N/A   Clear
4:52 PM 44.6 °F - 30.2 °F 57% 30.37 in 10.0 mi Calm Calm - N/A   Clear
5:52 PM 44.1 °F 40.8 °F 28.9 °F 55% 30.35 in 10.0 mi SSE 5.8 mph - N/A   Clear
6:52 PM 43.0 °F 40.3 °F 34.0 °F 71% 30.33 in 10.0 mi South 4.6 mph - N/A   Clear
7:52 PM 43.0 °F 40.3 °F 34.0 °F 71% 30.30 in 10.0 mi SW 4.6 mph - N/A   Clear
8:52 PM 43.0 °F 40.3 °F 34.0 °F 71% 30.31 in 10.0 mi SW 4.6 mph - N/A   Clear
9:52 PM 43.0 °F 37.7 °F 35.1 °F 74% 30.31 in 10.0 mi SSW 9.2 mph - N/A   Clear
10:52 PM 42.8 °F 38.6 °F 35.6 °F 76% 30.27 in 10.0 mi SSW 6.9 mph - N/A   Clear
11:52 PM 42.1 °F 37.7 °F 36.0 °F 79% 30.27 in 10.0 mi SSW 6.9 mph - N/A   Clear